Location: Byszew
(52.1813°N, 19.2693°E)
Time: 14:17:46
(UTC+00:00)

SPROUT - Visible Passes

Search period start: 02 July 2022 00:00
Search period end: 12 July 2022 00:00
Orbit: 588 x 601 km, 97.9° (Epoch: 01 July)

Date Brightness Start Highest point End Pass type
(mag) Time Alt. Az. Time Alt. Az. Time Alt. Az.
02 Jul ? 00:29:25 14° SW 00:31:37 20° W 00:34:46 10° NW visible
02 Jul ? 21:29:33 10° ENE 21:30:22 10° NE 21:31:11 10° NE visible
02 Jul ? 23:02:20 20° SSE 23:05:09 63° ENE 23:09:17 10° N visible
03 Jul ? 00:38:59 12° SW 00:41:09 17° W 00:43:54 10° NW visible
03 Jul ? 21:37:55 10° ENE 21:39:41 12° NE 21:41:26 10° NNE visible
03 Jul ? 23:11:54 22° SSE 23:14:34 77° ENE 23:18:46 10° NNW visible
04 Jul ? 00:48:33 10° WSW 00:50:42 14° W 00:52:54 10° NW visible
04 Jul ? 21:46:40 10° E 21:48:59 15° NE 21:51:18 10° NNE visible
04 Jul ? 23:21:28 23° SSE 23:24:00 87° WSW 23:28:12 10° NNW visible
05 Jul ? 00:58:57 10° WSW 01:00:16 11° W 01:01:36 10° WNW visible
05 Jul ? 21:55:34 10° E 21:58:18 17° ENE 22:01:02 10° NNE visible
05 Jul ? 23:31:01 24° S 23:33:26 71° WSW 23:37:37 10° NNW visible
06 Jul ? 22:04:33 10° ESE 22:07:37 20° ENE 22:10:42 10° NNE visible
06 Jul ? 23:40:34 24° S 23:42:52 57° W 23:47:00 10° NNW visible
07 Jul ? 22:13:37 10° ESE 22:16:56 24° ENE 22:20:17 10° N visible
07 Jul ? 23:50:07 24° SSW 23:52:18 46° W 23:56:22 10° NNW visible
08 Jul ? 22:23:01 12° ESE 22:26:16 28° ENE 22:29:51 10° N visible
08 Jul ? 23:59:39 22° SSW 00:01:46 38° W 00:05:41 10° NNW visible
09 Jul ? 22:32:33 14° SE 22:35:36 33° ENE 22:39:23 10° N visible
10 Jul ? 00:09:11 20° SW 00:11:12 31° W 00:14:58 10° NNW visible
10 Jul ? 22:42:04 17° SE 22:44:56 40° ENE 22:48:52 10° N visible
11 Jul ? 00:18:42 18° SW 00:20:40 26° W 00:24:12 10° NW visible
11 Jul ? 22:51:35 19° SE 22:54:17 49° ENE 22:58:20 10° N visible
